Date String (YYYY-MM-DD hh:mm:ss) UTC,Instrument flags,absolute air pressure of the measurement (hPa),sample flow rate (lpm),inlet stack bypass flow (lpm),air temperature of the measurement (°C),ambient temperature measured by the external sensor (°C),aerosol sample conditioner tube jacket temperature (°C),OPC LED temperature (°C),internal box temperature (°C),relative humidity of the measurement (%),span deviation,mass concentration of particles derived from Lorenz-Mie calculation of OPC scattering (μg/m³),mass concentration of particles derived from Lorenz-Mie calculation of OPC scattering (μg/m³),mass concentration of particles derived from Lorenz-Mie calculation of OPC scattering (μg/m³)
DateTimeUTC,F1_M11,P_M11,Q1_M11,Q2_M11,T1_M11,T2_M11,T3_M11,T4_M11,T5_M11,U1_M11,ZSPAN_M11,X0_M11,X2_M11,X1_M11
2023-09-20 23:00:00,SystemResetWarning,0827.2,5.01,000.00,027.7,025.0,000.0,036.1,029.1,18.0,0000.0,0007.74,0003.15,0002.36
2023-09-20 23:01:00,SystemResetWarning,0827.1,5.01,000.00,027.7,025.2,000.0,036.1,029.2,20.8,0000.0,0008.46,0003.15,0002.36
2023-09-20 23:02:00,SystemResetWarning,0827.1,5.00,000.00,027.7,025.6,000.0,036.1,029.3,21.2,0000.0,0009.29,0003.15,0002.38
2023-09-20 23:03:00,SystemResetWarning,0827.1,5.00,000.00,027.7,025.9,000.0,036.1,029.3,21.1,0000.0,0009.72,0003.14,0002.40
2023-09-20 23:04:00,SystemResetWarning,0827.1,5.00,000.00,027.8,026.2,000.0,036.1,029.4,21.2,0000.0,0009.91,0003.15,0002.41
2023-09-20 23:05:00,SystemResetWarning,0827.0,5.00,000.00,027.8,026.4,000.0,036.1,029.5,21.8,0000.0,0009.84,0003.13,0002.42
2023-09-20 23:06:00,SystemResetWarning,0827.1,5.00,000.00,027.8,026.6,000.0,036.1,029.6,20.7,0000.0,0009.53,0003.12,0002.42
2023-09-20 23:07:00,SystemResetWarning,0827.1,5.00,000.00,027.9,026.8,000.0,036.2,029.6,21.1,0000.0,0009.30,0003.13,0002.41
2023-09-20 23:08:00,SystemResetWarning,0827.0,4.99,000.00,027.9,026.1,000.0,036.2,029.4,20.5,0000.0,0009.27,0003.13,0002.40
2023-09-20 23:09:00,SystemResetWarning,0827.0,4.99,000.00,027.8,024.5,000.0,036.1,028.9,20.4,0000.0,0009.08,0003.12,0002.41
2023-09-20 23:10:00,SystemResetWarning,0827.0,5.01,000.00,027.7,023.9,000.0,036.0,028.8,21.0,0000.0,0009.09,0003.11,0002.42
2023-09-20 23:11:00,SystemResetWarning,0827.0,5.01,000.00,027.6,024.1,000.0,036.0,028.9,21.2,0000.0,0009.34,0003.11,0002.43
2023-09-20 23:12:00,SystemResetWarning,0827.0,4.99,000.00,027.5,024.5,000.0,036.0,028.9,20.6,0000.0,0008.92,0003.11,0002.45
2023-09-20 23:13:00,SystemResetWarning,0827.1,4.99,000.00,027.5,024.9,000.0,036.0,029.0,19.7,0000.0,0008.32,0003.09,0002.43
2023-09-20 23:14:00,SystemResetWarning,0827.1,5.01,000.00,027.5,025.3,000.0,036.0,029.1,19.4,0000.0,0007.49,0003.10,0002.42
2023-09-20 23:15:00,SystemResetWarning,0827.1,5.01,000.00,027.6,025.6,000.0,036.0,029.2,19.1,0000.0,0006.94,0003.07,0002.41
2023-09-20 23:16:00,SystemResetWarning,0827.2,5.00,000.00,027.6,026.0,000.0,036.0,029.3,19.3,0000.0,0007.46,0003.08,0002.41
2023-09-20 23:17:00,SystemResetWarning,0827.1,5.00,000.00,027.7,026.2,000.0,036.0,029.3,19.5,0000.0,0008.06,0003.09,0002.38
2023-09-20 23:18:00,SystemResetWarning,0827.1,5.00,000.00,027.7,026.5,000.0,036.0,029.4,18.2,0000.0,0008.86,0003.11,0002.38
2023-09-20 23:19:00,SystemResetWarning,0827.1,5.00,000.00,027.8,026.6,000.0,036.1,029.5,17.7,0000.0,0008.97,0003.13,0002.38
2023-09-20 23:20:00,SystemResetWarning,0827.1,4.99,000.00,027.8,026.8,000.0,036.1,029.6,17.6,0000.0,0009.22,0003.11,0002.37
2023-09-20 23:21:00,SystemResetWarning,0827.1,4.99,000.00,027.9,026.9,000.0,036.1,029.6,18.1,0000.0,0009.49,0003.10,0002.36
2023-09-20 23:22:00,SystemResetWarning,0827.1,4.99,000.00,027.9,025.9,000.0,036.1,029.4,18.3,0000.0,0009.21,0003.11,0002.36
2023-09-20 23:23:00,SystemResetWarning,0827.0,5.00,000.00,027.7,024.2,000.0,036.0,028.8,18.9,0000.0,0009.29,0003.12,0002.34
2023-09-20 23:24:00,SystemResetWarning,0827.0,5.00,000.00,027.6,023.8,000.0,036.0,028.9,19.5,0000.0,0009.05,0003.17,0002.35
2023-09-20 23:25:00,SystemResetWarning,0827.0,5.01,000.00,027.6,024.1,000.0,036.0,028.9,20.1,0000.0,0008.85,0003.16,0002.35
2023-09-20 23:26:00,SystemResetWarning,0827.0,5.01,000.00,027.5,024.5,000.0,036.0,028.9,21.4,0000.0,0008.97,0003.19,0002.36
2023-09-20 23:27:00,SystemResetWarning,0827.0,4.99,000.00,027.5,024.9,000.0,036.0,029.0,21.3,0000.0,0009.32,0003.23,0002.36
2023-09-20 23:28:00,SystemResetWarning,0827.0,5.00,000.00,027.5,025.3,000.0,036.0,029.1,21.3,0000.0,0009.16,0003.21,0002.36
2023-09-20 23:29:00,SystemResetWarning,0827.0,4.99,000.00,027.6,025.6,000.0,036.0,029.2,20.8,0000.0,0008.97,0003.21,0002.37
2023-09-20 23:30:00,SystemResetWarning,0827.0,5.00,000.00,027.6,025.9,000.0,036.0,029.3,20.4,0000.0,0009.18,0003.22,0002.38
2023-09-20 23:31:00,SystemResetWarning,0827.0,5.00,000.00,027.6,026.2,000.0,036.0,029.3,21.1,0000.0,0009.82,0003.25,0002.38
2023-09-20 23:32:00,SystemResetWarning,0827.0,5.00,000.00,027.7,026.4,000.0,036.0,029.4,20.7,0000.0,0010.69,0003.27,0002.37
2023-09-20 23:33:00,SystemResetWarning,0827.1,4.99,000.00,027.7,026.6,000.0,036.0,029.5,20.1,0000.0,0010.94,0003.32,0002.37
2023-09-20 23:34:00,SystemResetWarning,0827.1,5.01,000.00,027.8,026.8,000.0,036.1,029.5,20.4,0000.0,0010.85,0003.31,0002.36
2023-09-20 23:35:00,SystemResetWarning,0827.0,5.00,000.00,027.9,027.0,000.0,036.1,029.6,19.7,0000.0,0011.14,0003.26,0002.34
2023-09-20 23:36:00,SystemResetWarning,0827.0,4.99,000.00,027.9,026.6,000.0,036.1,029.5,19.4,0000.0,0011.65,0003.28,0002.35
2023-09-20 23:37:00,SystemResetWarning,0827.0,4.99,000.00,027.8,024.9,000.0,036.1,029.1,18.6,0000.0,0012.14,0003.27,0002.35
2023-09-20 23:38:00,SystemResetWarning,0826.9,5.01,000.00,027.7,023.9,000.0,036.0,028.9,17.3,0000.0,0012.27,0003.28,0002.36
2023-09-20 23:39:00,SystemResetWarning,0827.0,5.00,000.00,027.6,024.1,000.0,036.0,028.9,18.1,0000.0,0011.56,0003.29,0002.37
2023-09-20 23:40:00,SystemResetWarning,0827.0,4.99,000.00,027.5,024.4,000.0,036.0,028.9,18.6,0000.0,0011.74,0003.31,0002.37
2023-09-20 23:41:00,SystemResetWarning,0827.0,5.01,000.00,027.5,024.8,000.0,036.0,029.0,18.1,0000.0,0011.87,0003.26,0002.35
2023-09-20 23:42:00,SystemResetWarning,0827.1,5.00,000.00,027.5,025.2,000.0,036.0,029.1,17.6,0000.0,0011.10,0003.25,0002.36
2023-09-20 23:43:00,SystemResetWarning,0827.1,4.99,000.00,027.6,025.6,000.0,036.0,029.2,17.8,0000.0,0009.62,0003.22,0002.36
2023-09-20 23:44:00,SystemResetWarning,0827.1,4.99,000.00,027.6,025.9,000.0,036.0,029.3,18.3,0000.0,0009.84,0003.17,0002.36
2023-09-20 23:45:00,SystemResetWarning,0827.1,5.01,000.00,027.7,026.2,000.0,036.0,029.3,18.5,0000.0,0010.99,0003.16,0002.36
2023-09-20 23:46:00,SystemResetWarning,0827.1,5.01,000.00,027.7,026.4,000.0,036.0,029.4,18.3,0000.0,0010.81,0003.17,0002.37
2023-09-20 23:47:00,SystemResetWarning,0827.2,5.00,000.00,027.8,026.6,000.0,036.1,029.5,18.0,0000.0,0010.32,0003.14,0002.38
2023-09-20 23:48:00,SystemResetWarning,0827.2,4.99,000.00,027.8,026.8,000.0,036.1,029.6,18.3,0000.0,0009.95,0003.15,0002.36
2023-09-20 23:49:00,SystemResetWarning,0827.1,4.99,000.00,027.8,026.1,000.0,036.1,029.4,17.8,0000.0,0009.89,0003.11,0002.35
2023-09-20 23:50:00,SystemResetWarning,0827.1,5.00,000.00,027.7,024.5,000.0,036.0,028.9,17.5,0000.0,0010.11,0003.12,0002.36
2023-09-20 23:51:00,SystemResetWarning,0827.1,5.01,000.00,027.6,023.9,000.0,036.0,028.8,17.4,0000.0,0010.01,0003.11,0002.37
2023-09-20 23:52:00,SystemResetWarning,0827.1,5.01,000.00,027.5,024.1,000.0,035.9,028.9,17.5,0000.0,0009.29,0003.10,0002.37
2023-09-20 23:53:00,SystemResetWarning,0827.1,5.00,000.00,027.5,024.4,000.0,035.9,028.9,17.8,0000.0,0009.52,0003.08,0002.36
2023-09-20 23:54:00,SystemResetWarning,0827.1,4.99,000.00,027.5,024.8,000.0,035.9,029.0,17.8,0000.0,0010.59,0003.08,0002.36
2023-09-20 23:55:00,SystemResetWarning,0827.1,5.00,000.00,027.5,025.2,000.0,035.9,029.1,17.9,0000.0,0010.18,0003.06,0002.38
2023-09-20 23:56:00,SystemResetWarning,0827.2,5.01,000.00,027.5,025.6,000.0,035.9,029.1,19.1,0000.0,0009.11,0003.07,0002.39
2023-09-20 23:57:00,SystemResetWarning,0827.1,5.00,000.00,027.6,025.9,000.0,035.9,029.2,20.0,0000.0,0009.86,0003.11,0002.38
2023-09-20 23:58:00,SystemResetWarning,0827.1,4.99,000.00,027.6,026.2,000.0,035.9,029.3,18.9,0000.0,0010.36,0003.10,0002.39
2023-09-20 23:59:00,SystemResetWarning,0827.1,4.99,000.00,027.7,026.4,000.0,036.0,029.4,18.8,0000.0,0010.08,0003.07,0002.40
